Weather History for PAWG - May, 2013

Change the Weather History Date:

Friday, May 31, 2013

  Actual Average Record
Temperature  
Mean Temperature 50 °F -  
Max Temperature 51 °F 60 °F 74 °F (1964)
Min Temperature 48 °F 43 °F 34 °F (1966)
Degree Days  
Heating Degree Days 16    
Moisture  
Dew Point 45 °F    
Average Humidity 84    
Maximum Humidity 93    
Minimum Humidity 76    
Precipitation  
Precipitation 0.29 in - - ()
Sea Level Pressure  
Sea Level Pressure 30.24 in    
Wind  
Wind Speed 2 mph (NNW)    
Max Wind Speed 8 mph    
Max Gust Speed -    
Visibility 10 miles    
Events      
Averages and records for this station are not official NWS values.
T = Trace of Precipitation, MM = Missing Value Source: NWS Daily Summary

Daily Weather History Graph

Daily Weather History Graph

Search for Another Location

Airport or City:

Trip Planner

Search our weather history database for the weather conditions in past years. The results will help you decide how hot, cold, wet, or windy it might be!

Date:

Astronomy

May. 31, 2013 Rise Set
Actual Time 4:08 AM AKDT 9:26 PM AKDT
Civil Twilight 3:09 AM AKDT 10:26 PM AKDT
Nautical Twilight 1:19 AM AKDT 12:14 AM AKDT
Astronomical Twilight Sun does not rise Sun does not rise
Moon 1:04 AM AKDT (5/31) 12:37 PM AKDT (5/31)
Length of Visible Light 19h 16m
Length of Day
17h 18m
Waning Gibbous, 50% of the Moon is Illuminated
May 31
Waning Gibbous
Jun 8
New
Jun 16
First Quarter
Jun 23
Full
Jun 29
Last Quarter

Hourly Weather History & Observations

Time (AKDT) Temp. Dew Point Humidity Pressure Visibility Wind Dir Wind Speed Gust Speed Precip Events Conditions
12:16 AM 51.8 °F 48.2 °F 88% 30.12 in 5.0 mi Calm Calm - 0.03 in   Overcast
12:36 AM 51.8 °F 44.6 °F 76% 30.12 in 9.0 mi SW 5.8 mph - 0.06 in   Overcast
12:56 AM 51.8 °F 44.6 °F 76% 30.13 in 10.0 mi SSE 3.5 mph - 0.08 in   Overcast
1:16 AM 51.8 °F 44.6 °F 76% 30.13 in 10.0 mi SSW 4.6 mph - N/A   Overcast
1:36 AM 51.8 °F 46.4 °F 82% 30.13 in 10.0 mi SW 6.9 mph - 0.01 in   Overcast
1:56 AM 51.8 °F 46.4 °F 82% 30.13 in 10.0 mi SSE 3.5 mph - 0.01 in   Overcast
2:16 AM 51.8 °F 46.4 °F 82% 30.14 in 10.0 mi SE 3.5 mph - N/A   Overcast
2:36 AM 51.8 °F 44.6 °F 76% 30.14 in 10.0 mi ESE 4.6 mph - N/A   Overcast
2:56 AM 51.8 °F 44.6 °F 76% 30.15 in 10.0 mi South 4.6 mph - N/A   Overcast
3:16 AM 50.0 °F 44.6 °F 82% 30.15 in 10.0 mi SSE 8.1 mph - N/A   Overcast
3:36 AM 50.0 °F 46.4 °F 87% 30.16 in 6.0 mi NNE 3.5 mph - N/A   Overcast
3:56 AM 48.2 °F 46.4 °F 93% 30.17 in 7.0 mi Calm Calm - N/A   Overcast
4:16 AM 50.0 °F 46.4 °F 87% 30.17 in 4.0 mi Calm Calm - N/A   Overcast
4:36 AM 50.0 °F 46.4 °F 87% 30.17 in 9.0 mi South 3.5 mph - 0.01 in   Overcast
4:56 AM 50.0 °F 46.4 °F 87% 30.18 in 9.0 mi SE 3.5 mph - 0.01 in   Overcast
5:16 AM 50.0 °F 44.6 °F 82% 30.18 in 10.0 mi South 3.5 mph - N/A   Overcast
5:36 AM 50.0 °F 44.6 °F 82% 30.18 in 10.0 mi South 6.9 mph - N/A   Overcast
5:56 AM 50.0 °F 44.6 °F 82% 30.19 in 10.0 mi SSW 5.8 mph - N/A   Overcast
6:16 AM 48.2 °F 44.6 °F 87% 30.20 in 10.0 mi SSW 4.6 mph - N/A   Overcast
6:36 AM 48.2 °F 44.6 °F 87% 30.20 in 10.0 mi Calm Calm - N/A   Overcast
6:56 AM 48.2 °F 44.6 °F 87% 30.21 in 10.0 mi Calm Calm - 0.01 in   Overcast
7:16 AM 50.0 °F 44.6 °F 82% 30.21 in 10.0 mi Calm Calm - N/A   Overcast
7:36 AM 50.0 °F 44.6 °F 82% 30.22 in 10.0 mi SSE 3.5 mph - 0.01 in   Overcast
7:56 AM 50.0 °F 44.6 °F 82% 30.22 in 10.0 mi Calm Calm - 0.01 in   Overcast
8:16 AM 48.2 °F 44.6 °F 87% 30.23 in 10.0 mi Calm Calm - 0.01 in   Overcast
8:36 AM 50.0 °F 46.4 °F 87% 30.24 in 10.0 mi Calm Calm - 0.02 in   Overcast
8:56 AM 50.0 °F 46.4 °F 87% 30.24 in 10.0 mi Calm Calm - 0.03 in   Overcast
9:16 AM 50.0 °F 46.4 °F 87% 30.24 in 10.0 mi Calm Calm - N/A   Overcast
9:36 AM 50.0 °F 46.4 °F 87% 30.24 in 10.0 mi Calm Calm - 0.02 in   Overcast
9:56 AM 50.0 °F 46.4 °F 87% 30.25 in 10.0 mi Calm Calm - 0.03 in   Overcast
10:16 AM 50.0 °F 46.4 °F 87% 30.25 in 10.0 mi Calm Calm - N/A   Overcast
10:36 AM 51.8 °F 46.4 °F 82% 30.26 in 10.0 mi Calm Calm - 0.01 in   Overcast
10:56 AM 50.0 °F 46.4 °F 87% 30.26 in 10.0 mi NNW 3.5 mph - 0.02 in   Overcast
11:16 AM 50.0 °F 46.4 °F 87% 30.27 in 10.0 mi Calm Calm - 0.01 in   Overcast
11:36 AM 51.8 °F 46.4 °F 82% 30.27 in 10.0 mi Calm Calm - 0.03 in   Overcast
11:56 AM 50.0 °F 46.4 °F 87% 30.28 in 10.0 mi NNE 4.6 mph - 0.04 in   Overcast
12:16 PM 50.0 °F 44.6 °F 82% 30.28 in 10.0 mi North 3.5 mph - 0.02 in   Overcast
12:36 PM 50.0 °F 44.6 °F 82% 30.28 in 10.0 mi NNE 3.5 mph - 0.03 in   Overcast
12:56 PM 50.0 °F 44.6 °F 82% 30.29 in 10.0 mi NNW 4.6 mph - 0.04 in   Overcast
1:16 PM 50.0 °F 44.6 °F 82% 30.29 in 10.0 mi Calm Calm - 0.01 in   Overcast
1:36 PM 50.0 °F 44.6 °F 82% 30.29 in 10.0 mi Calm Calm - 0.01 in   Overcast
1:56 PM 50.0 °F 44.6 °F 82% 30.29 in 10.0 mi Calm Calm - 0.01 in   Overcast
2:16 PM 50.0 °F 44.6 °F 82% 30.29 in 10.0 mi North 3.5 mph - N/A   Overcast
2:36 PM 51.8 °F 46.4 °F 82% 30.30 in 10.0 mi Calm Calm - N/A   Overcast
2:56 PM 51.8 °F 46.4 °F 82% 30.30 in 10.0 mi NE 3.5 mph - N/A   Overcast
3:16 PM 51.8 °F 46.4 °F 82% 30.30 in 10.0 mi Calm Calm - N/A   Overcast
3:36 PM 51.8 °F 44.6 °F 76% 30.30 in 10.0 mi Calm Calm - N/A   Overcast
3:56 PM 51.8 °F 46.4 °F 82% 30.30 in 10.0 mi Calm Calm - N/A   Overcast
4:16 PM 51.8 °F 44.6 °F 76% 30.30 in 10.0 mi Calm Calm - N/A   Overcast
4:36 PM 50.0 °F 44.6 °F 82% 30.30 in 10.0 mi Calm Calm - N/A   Overcast
4:56 PM 50.0 °F 44.6 °F 82% 30.30 in 10.0 mi NNW 3.5 mph - N/A   Overcast
5:16 PM 50.0 °F 44.6 °F 82% 30.30 in 10.0 mi North 3.5 mph - N/A   Overcast
5:36 PM 50.0 °F 44.6 °F 82% 30.30 in 10.0 mi Calm Calm - N/A   Overcast
5:56 PM 50.0 °F 44.6 °F 82% 30.29 in 10.0 mi WNW 3.5 mph - N/A   Overcast
6:16 PM 50.0 °F 44.6 °F 82% 30.29 in 10.0 mi WNW 4.6 mph - N/A   Overcast
6:36 PM 50.0 °F 44.6 °F 82% 30.29 in 10.0 mi NW 4.6 mph - N/A   Overcast
6:56 PM 48.2 °F 44.6 °F 87% 30.29 in 10.0 mi NW 3.5 mph - N/A   Overcast
7:16 PM 48.2 °F 44.6 °F 87% 30.29 in 10.0 mi NW 4.6 mph - N/A   Overcast
7:36 PM 48.2 °F 44.6 °F 87% 30.29 in 10.0 mi NW 3.5 mph - N/A   Overcast
7:56 PM 48.2 °F 44.6 °F 87% 30.29 in 10.0 mi Calm Calm - N/A   Overcast
8:16 PM 48.2 °F 44.6 °F 87% 30.28 in 10.0 mi Calm Calm - N/A   Overcast
8:36 PM 48.2 °F 44.6 °F 87% 30.28 in 10.0 mi Calm Calm - N/A   Overcast
8:56 PM 48.2 °F 44.6 °F 87% 30.28 in 8.0 mi Calm Calm - N/A   Overcast
9:16 PM 48.2 °F 44.6 °F 87% 30.29 in 8.0 mi Calm Calm - N/A   Overcast
9:36 PM 48.2 °F 44.6 °F 87% 30.28 in 8.0 mi NNE 4.6 mph - N/A   Overcast
9:56 PM 48.2 °F 44.6 °F 87% 30.28 in 8.0 mi NNE 3.5 mph - N/A   Overcast
10:16 PM 48.2 °F 44.6 °F 87% 30.28 in 8.0 mi Calm Calm - N/A   Overcast
10:36 PM 48.2 °F 44.6 °F 87% 30.28 in 8.0 mi Calm Calm - N/A   Overcast
10:56 PM 48.2 °F 44.6 °F 87% 30.29 in 8.0 mi Calm Calm - N/A   Overcast
11:16 PM 48.2 °F 44.6 °F 87% 30.28 in 10.0 mi Calm Calm - N/A   Overcast
11:36 PM 48.2 °F 44.6 °F 87% 30.29 in 10.0 mi Calm Calm - N/A   Overcast
11:56 PM 48.2 °F 46.4 °F 93% 30.28 in 10.0 mi ESE 3.5 mph - N/A   Overcast